• In Hungary
  • List of Countries
  • For 7 days
  • Water Temperature
  • Satellite Maps
  • Weather Map
  • News
  • Weather Widgets
  • user-avatar
    Login

    Hourly Weather Uyna

    Today, 21 October, Sunday

    Time Temperature Precipitation Wind Pressure Humidity
    00:00 +22°C° 0 mm 0 mps 739 mmHg 99%
    01:00 +21°C° 0.1 mm 0 mps 739 mmHg 99%
    02:00 +21°C° 0.1 mm 0 mps 739 mmHg 99%
    03:00 +21°C° 0.1 mm 0 mps 739 mmHg 99%
    04:00 +21°C° 0 mm 0 mps 739 mmHg 99%
    05:00 +21°C° 0 mm 0 mps 739 mmHg 99%
    06:00 +21°C° 0 mm 0 mps 740 mmHg 99%
    07:00 +23°C° 0 mm 0 mps 740 mmHg 93%
    08:00 +26°C° 0 mm 1 mps 740 mmHg 88%
    09:00 +27°C° 0 mm 1 mps 741 mmHg 82%
    10:00 +29°C° 0 mm 1 mps 740 mmHg 73%
    11:00 +31°C° 0 mm 1 mps 740 mmHg 63%
    12:00 +32°C° 0 mm 2 mps 739 mmHg 54%
    13:00 +32°C° 0.2 mm 2 mps 739 mmHg 59%
    14:00 +31°C° 0.2 mm 2 mps 738 mmHg 64%
    15:00 +31°C° 0.2 mm 2 mps 737 mmHg 69%
    16:00 +29°C° 0.2 mm 1 mps 738 mmHg 77%
    17:00 +27°C° 0.2 mm 1 mps 738 mmHg 85%
    18:00 +25°C° 0.2 mm 1 mps 738 mmHg 93%
    19:00 +25°C° 0.1 mm 1 mps 739 mmHg 95%
    20:00 +22°C° 0.1 mm 0 mps 740 mmHg 96%
    21:00 +22°C° 0.1 mm 0 mps 740 mmHg 98%
    22:00 +22°C° 0 mm 0 mps 740 mmHg 98%
    23:00 +21°C° 0 mm 0 mps 740 mmHg 99%

    Tomorrow, 22 October, Monday

    Time Temperature Precipitation Wind Pressure Humidity
    00:00 +21°C° 0 mm 0 mps 740 mmHg 99%
    01:00 +21°C° 0 mm 0 mps 740 mmHg 99%
    02:00 +22°C° 0 mm 0 mps 739 mmHg 99%
    03:00 +22°C° 0 mm 0 mps 739 mmHg 99%
    04:00 +22°C° 0 mm 0 mps 739 mmHg 98%
    05:00 +21°C° 0 mm 0 mps 740 mmHg 98%
    06:00 +21°C° 0 mm 0 mps 740 mmHg 98%
    07:00 +25°C° 0 mm 1 mps 740 mmHg 88%
    08:00 +27°C° 0 mm 1 mps 741 mmHg 78%
    09:00 +29°C° 0 mm 1 mps 741 mmHg 68%
    10:00 +30°C° 0 mm 1 mps 741 mmHg 63%
    11:00 +32°C° 0 mm 2 mps 740 mmHg 58%
    12:00 +34°C° 0 mm 2 mps 740 mmHg 52%
    13:00 +32°C° 0.4 mm 2 mps 739 mmHg 60%
    14:00 +31°C° 0.4 mm 2 mps 739 mmHg 68%
    15:00 +30°C° 0.4 mm 2 mps 738 mmHg 76%
    16:00 +29°C° 0.6 mm 1 mps 738 mmHg 83%
    17:00 +27°C° 0.6 mm 1 mps 739 mmHg 89%
    18:00 +23°C° 0.6 mm 0 mps 739 mmHg 96%
    19:00 +23°C° 0.3 mm 0 mps 740 mmHg 97%
    20:00 +22°C° 0.3 mm 0 mps 740 mmHg 97%
    21:00 +22°C° 0.3 mm 0 mps 741 mmHg 98%
    22:00 +22°C° 0 mm 0 mps 741 mmHg 98%
    23:00 +22°C° 0 mm 0 mps 740 mmHg 98%

    Day after tomorrow, 23 October, Tuesday

    Time Temperature Precipitation Wind Pressure Humidity
    00:00 +22°C° 0 mm 0 mps 740 mmHg 99%
    01:00 +22°C° 0 mm 0 mps 740 mmHg 99%
    02:00 +22°C° 0 mm 0 mps 739 mmHg 99%
    03:00 +22°C° 0 mm 0 mps 739 mmHg 99%
    04:00 +21°C° 0 mm 0 mps 739 mmHg 99%
    05:00 +21°C° 0 mm 0 mps 740 mmHg 99%
    06:00 +21°C° 0 mm 0 mps 740 mmHg 99%
    07:00 +25°C° 0.1 mm 1 mps 741 mmHg 94%
    08:00 +26°C° 0.1 mm 1 mps 741 mmHg 90%
    09:00 +27°C° 0.1 mm 1 mps 741 mmHg 85%
    10:00 +29°C° 0.1 mm 1 mps 741 mmHg 74%
    11:00 +31°C° 0.1 mm 1 mps 740 mmHg 63%
    12:00 +34°C° 0.1 mm 2 mps 740 mmHg 51%
    13:00 +34°C° 0 mm 2 mps 739 mmHg 51%
    14:00 +34°C° 0 mm 2 mps 738 mmHg 50%
    15:00 +34°C° 0 mm 2 mps 738 mmHg 50%
    16:00 +31°C° 0 mm 1 mps 738 mmHg 60%
    17:00 +29°C° 0 mm 1 mps 738 mmHg 71%
    18:00 +27°C° 0 mm 1 mps 739 mmHg 81%
    19:00 +26°C° 0.1 mm 1 mps 739 mmHg 86%
    20:00 +25°C° 0.1 mm 1 mps 740 mmHg 92%
    21:00 +22°C° 0.1 mm 0 mps 741 mmHg 97%
    22:00 +22°C° 0 mm 0 mps 740 mmHg 97%
    23:00 +22°C° 0 mm 0 mps 740 mmHg 98%

    24 October, Wednesday

    Time Temperature Precipitation Wind Pressure Humidity
    00:00 +21°C° 0 mm 0 mps 740 mmHg 99%
    01:00 +21°C° 0 mm 0 mps 740 mmHg 99%
    02:00 +21°C° 0 mm 0 mps 740 mmHg 99%
    03:00 +22°C° 0 mm 0 mps 739 mmHg 99%
    04:00 +21°C° 0 mm 0 mps 739 mmHg 99%
    05:00 +21°C° 0 mm 0 mps 740 mmHg 98%
    06:00 +21°C° 0 mm 0 mps 740 mmHg 98%
    07:00 +23°C° 0 mm 0 mps 740 mmHg 87%
    08:00 +27°C° 0 mm 1 mps 741 mmHg 76%
    09:00 +29°C° 0 mm 1 mps 741 mmHg 66%
    10:00 +31°C° 0 mm 1 mps 740 mmHg 59%
    11:00 +32°C° 0 mm 1 mps 740 mmHg 53%
    12:00 +35°C° 0 mm 2 mps 739 mmHg 46%
    13:00 +35°C° 0 mm 2 mps 738 mmHg 47%
    14:00 +35°C° 0 mm 2 mps 738 mmHg 48%
    15:00 +35°C° 0 mm 2 mps 737 mmHg 49%
    16:00 +31°C° 0 mm 1 mps 737 mmHg 60%
    17:00 +29°C° 0 mm 1 mps 738 mmHg 70%
    18:00 +27°C° 0 mm 1 mps 738 mmHg 81%
    19:00 +26°C° 0.1 mm 1 mps 739 mmHg 85%
    20:00 +25°C° 0.1 mm 1 mps 739 mmHg 90%
    21:00 +23°C° 0.1 mm 0 mps 740 mmHg 94%
    22:00 +22°C° 0.1 mm 0 mps 740 mmHg 96%
    23:00 +22°C° 0.1 mm 0 mps 739 mmHg 97%

    25 October, Thursday

    Time Temperature Precipitation Wind Pressure Humidity
    00:00 +22°C° 0.1 mm 0 mps 739 mmHg 99%
    01:00 +22°C° 0.1 mm 0 mps 739 mmHg 99%
    02:00 +22°C° 0.1 mm 0 mps 739 mmHg 99%
    03:00 +22°C° 0.1 mm 0 mps 738 mmHg 99%
    04:00 +22°C° 0 mm 0 mps 739 mmHg 99%
    05:00 +22°C° 0 mm 0 mps 739 mmHg 98%
    06:00 +22°C° 0 mm 0 mps 739 mmHg 98%
    07:00 +23°C° 0 mm 0 mps 740 mmHg 90%
    08:00 +25°C° 0 mm 0 mps 740 mmHg 82%
    09:00 +26°C° 0 mm 0 mps 740 mmHg 74%
    10:00 +30°C° 0 mm 1 mps 740 mmHg 63%
    11:00 +32°C° 0 mm 1 mps 739 mmHg 53%
    12:00 +34°C° 0 mm 1 mps 738 mmHg 42%
    13:00 +34°C° 0 mm 1 mps 737 mmHg 42%
    14:00 +34°C° 0 mm 1 mps 737 mmHg 41%
    15:00 +34°C° 0 mm 1 mps 736 mmHg 41%
    16:00 +32°C° 0 mm 1 mps 737 mmHg 50%
    17:00 +29°C° 0 mm 1 mps 737 mmHg 60%
    18:00 +25°C° 0 mm 0 mps 737 mmHg 69%
    19:00 +24°C° 0 mm 0 mps 738 mmHg 74%
    20:00 +23°C° 0 mm 0 mps 739 mmHg 79%
    21:00 +22°C° 0 mm 0 mps 739 mmHg 84%
    22:00 +22°C° 0 mm 0 mps 739 mmHg 87%
    23:00 +22°C° 0 mm 0 mps 739 mmHg 90%

    26 October, Friday

    Time Temperature Precipitation Wind Pressure Humidity
    00:00 +22°C° 0 mm 0 mps 739 mmHg 94%
    01:00 +22°C° 0 mm 0 mps 739 mmHg 95%
    02:00 +22°C° 0 mm 0 mps 738 mmHg 96%
    03:00 +22°C° 0 mm 0 mps 738 mmHg 97%
    04:00 +22°C° 0 mm 0 mps 739 mmHg 97%
    05:00 +22°C° 0 mm 0 mps 739 mmHg 97%
    06:00 +22°C° 0 mm 0 mps 739 mmHg 98%
    07:00 +24°C° 0 mm 0 mps 740 mmHg 88%
    08:00 +26°C° 0 mm 0 mps 740 mmHg 78%
    09:00 +28°C° 0 mm 0 mps 740 mmHg 68%
    10:00 +31°C° 0 mm 1 mps 739 mmHg 59%
    11:00 +33°C° 0 mm 1 mps 739 mmHg 50%
    12:00 +34°C° 0 mm 1 mps 738 mmHg 42%
    13:00 +34°C° 0 mm 1 mps 737 mmHg 41%
    14:00 +34°C° 0 mm 1 mps 737 mmHg 41%
    15:00 +34°C° 0 mm 1 mps 736 mmHg 40%
    16:00 +32°C° 0 mm 1 mps 737 mmHg 50%
    17:00 +29°C° 0 mm 1 mps 737 mmHg 59%
    18:00 +26°C° 0 mm 1 mps 738 mmHg 68%
    19:00 +25°C° 0 mm 1 mps 738 mmHg 73%
    20:00 +25°C° 0 mm 1 mps 739 mmHg 79%
    21:00 +22°C° 0 mm 0 mps 739 mmHg 84%
    22:00 +22°C° 0 mm 0 mps 739 mmHg 87%
    23:00 +21°C° 0 mm 0 mps 739 mmHg 91%
    Show more